Tracking 19212 objects as of 16-Jul-2018
HD Live streaming from Space Station
objects crossing your sky now

FENGYUN 1C DEB

Track FENGYUN 1C DEB now!
10-day predictions


NORAD ID: 30327
Int'l Code: 1999-025AAN
Perigee: 793.9 km
Apogee: 1,000.3 km
Inclination: 98.4 °
Period: 102.8 minutes
Semi major axis: 7268 km
RCS: 0.0095 m2 (small)
Launch date: May 10, 1999
Source: People's Republic of China (PRC)
Launch site: Taiyaun Space Center, China (TSC)

Note: This is SATELLITE DEBRIS
aabbcc
Your satellite tracking list
Your tracking list is empty




NASA's NSSDC Master Catalog

Two Line Element Set (TLE):
1 30327U 99025AAN 18196.36202726  .00000904  00000-0  57635-3 0  9995
2 30327  98.4127 240.1488 0141929 263.9835 157.3402 14.01107935584221
Source of the keplerian elements: AFSPC